Regional Weather Roundup
Issued by NWS

Home | Current Version | Previous Version | Text Only | Print | Product List | Glossary On
Versions: 1 2 3 4 5 6 7 8 9 10 11 12 13 14 15 16 17 18 19 20 21 22 23 24 25 26 27 28 29 30 31 32 33 34 35 36 37 38 39 40 41 42 43 44 45 46 47 48 49 50
000
ASUS45 KREV 172010
RWRNV
NEVADA REGIONAL WEATHER ROUNDUP
NATIONAL WEATHER SERVICE RENO NV
100 PM PDT WED SEP 17 2014

NOTE: "FAIR" INDICATES FEW OR NO CLOUDS BELOW 12,000 FEET WITH NO
SIGNIFICANT WEATHER AND/OR OBSTRUCTIONS TO VISIBILITY.

NVZ001-003-004-172100-
WESTERN NEVADA

CITY           SKY/WX    TMP DP  RH WIND       PRES   REMARKS
RENO           MOSUNNY   89  35  14 SW13G29   29.91F
MINDEN         FAIR      86  36  16 S21G30    29.95F
SLIDE MTN        N/A     59  36  41 SW21        N/A
FALLON         MOSUNNY   89  33  13 VRB3      29.88F
LOVELOCK       SUNNY     88  31  13 SW6       29.89F
HAWTHORNE      SUNNY     88  37  16 NW5       29.89F
$$

NVZ002-CAZ072-073-172100-
NORTHERN AND CENTRAL SIERRA

CITY           SKY/WX    TMP DP  RH WIND       PRES   REMARKS
S. LAKE TAHOE  SUNNY     78  32  18 SW15G24   30.06F
TRUCKEE        MOSUNNY   79  36  21 SW18G30   30.04F
SQUAW VLY 8000 NOT AVBL
SUSANVILLE     MOSUNNY   82  37  20 SW12G17   29.91F
BLUE CANYON    SUNNY     74  31  20 S18G28    30.04F
MAMMOTH LAKES  CLOUDY    77  36  22 SW10G25   30.14F
BRIDGEPORT     FAIR      78  33  19 VRB7G22   30.08F
$$

NVZ030-031-036-172100-
NORTHERN NEVADA

CITY           SKY/WX    TMP DP  RH WIND       PRES   REMARKS
ELKO           SUNNY     88  36  15 SW6       29.97F
WINNEMUCCA     SUNNY     87  28  12 S6        29.92F
WENDOVER       SUNNY     84  41  21 E9        29.94F
$$

NVZ035-037-172100-
CENTRAL NEVADA

CITY           SKY/WX    TMP DP  RH WIND       PRES   REMARKS
ELY            NOT AVBL
EUREKA           N/A     88  41  19 S20G28    30.03F
$$

NVZ013-014-172100-
SOUTH CENTRAL NEVADA

CITY           SKY/WX    TMP DP  RH WIND       PRES   REMARKS
TONOPAH        MOSUNNY   86  47  25 S14G22    30.03F
$$

NVZ017-020-022-172100-
SOUTHERN NEVADA

CITY           SKY/WX    TMP DP  RH WIND       PRES   REMARKS
LAS VEGAS      MOSUNNY   92  55  28 VRB3      29.83F
N. LAS VEGAS   SUNNY     92  56  29 SE6       29.85F
NELLIS AFB     SUNNY     92  59  32 E5        29.84F
HENDERSON      SUNNY     93  58  30 NE6       29.89F
MERCURY        SUNNY     92  53  26 VRB6      29.91F
$$


USA.gov is the U.S. government's official web portal to all federal, state and local government web resources and services.